Southern Pines, NC

4:02 PM EST on November 16, 2019 (GMT -0500)
Moore County

Weather History for KSOP - October, 2019

Change the Weather History Date:

Sunday, October 20, 2019

  Actual Average Record
Temperature  
Mean Temperature 62 °F -  
Max Temperature 66 °F 67 °F 87 °F (2005)
Min Temperature 55 °F 46 °F 28 °F (2015)
Degree Days  
Heating Degree Days 4    
Growing Degree Days 12 (Base 50)    
Moisture  
Dew Point 59 °F    
Average Humidity 92    
Maximum Humidity 100    
Minimum Humidity 80    
Precipitation  
Precipitation 1.08 in - - ()
Sea Level Pressure  
Sea Level Pressure 29.78 in    
Wind  
Wind Speed 8 mph (NNE)    
Max Wind Speed 14 mph    
Max Gust Speed 20 mph    
Visibility 7 miles    
Events Rain    
Averages and records for this station are not official NWS values.
T = Trace of Precipitation, MM = Missing Value Source: NWS Daily Summary

Daily Weather History Graph

Daily Weather History Graph

Search for Another Location

Airport or City:

Astronomy

Oct. 20, 2019 Rise Set
Actual Time 7:27 AM EDT 6:36 PM EDT
Civil Twilight 7:02 AM EDT 7:02 PM EDT
Nautical Twilight 6:32 AM EDT 7:31 PM EDT
Astronomical Twilight 6:03 AM EDT 8:01 PM EDT
Moon 11:52 PM EDT (10/20) 1:45 PM EDT (10/20)
Length of Visible Light 12h 00m
Length of Day
11h 08m
Waning Gibbous, 59% of the Moon is Illuminated
Oct 20
Waning Gibbous
Oct 21
Last Quarter
Oct 27
New
Nov 4
First Quarter
Nov 12
Full

Hourly Weather History & Observations

Time (EDT) Temp. Dew Point Humidity Pressure Visibility Wind Dir Wind Speed Gust Speed Precip Events Conditions
12:56 AM 59.0 °F 59.0 °F 100% 29.83 in 4.0 mi ENE 11.5 mph - 0.08 in Rain Light Rain
1:56 AM 60.1 °F 60.1 °F 100% 29.79 in 7.0 mi East 10.4 mph - 0.06 in Rain Light Rain
2:56 AM 62.1 °F 61.0 °F 96% 29.74 in 9.0 mi ENE 10.4 mph - 0.11 in Rain Light Rain
3:56 AM 64.0 °F 63.0 °F 96% 29.69 in 6.0 mi East 9.2 mph - 0.23 in Rain Rain
4:56 AM 66.0 °F 64.9 °F 96% 29.66 in 10.0 mi East 11.5 mph - 0.08 in Rain Light Rain
5:27 AM 66.2 °F 66.2 °F 100% 29.62 in 1.8 mi East 13.8 mph 19.6 mph 0.32 in Rain Heavy Rain
5:34 AM 66.2 °F 66.2 °F 100% 29.62 in 3.0 mi East 13.8 mph - 0.35 in Rain Rain
5:56 AM 66.9 °F 66.0 °F 97% 29.64 in 8.0 mi ESE 10.4 mph - 0.38 in Rain Light Rain
6:56 AM 66.9 °F 66.0 °F 97% 29.65 in 2.5 mi NW 5.8 mph - 0.06 in Rain Rain
7:24 AM 64.4 °F 64.4 °F 100% 29.65 in 3.0 mi NW 8.1 mph - 0.05 in Rain Light Rain
7:37 AM 62.6 °F 62.6 °F 100% 29.66 in 1.8 mi Variable 6.9 mph - 0.06 in Rain Light Rain
7:50 AM 62.6 °F 60.8 °F 94% 29.66 in 2.0 mi NNW 8.1 mph - 0.06 in Rain Light Rain
7:56 AM 61.0 °F 60.1 °F 97% 29.67 in 3.0 mi Variable 6.9 mph - 0.06 in Rain Light Rain
8:56 AM 57.9 °F 57.0 °F 97% 29.70 in 6.0 mi NW 4.6 mph - 0.01 in   Overcast
9:40 AM 57.2 °F 55.4 °F 94% 29.72 in 1.8 mi Variable 5.8 mph - 0.01 in   Overcast
9:56 AM 57.0 °F 55.9 °F 96% 29.74 in 1.8 mi Variable 6.9 mph - 0.01 in   Overcast
10:06 AM 57.2 °F 55.4 °F 94% 29.73 in 3.0 mi Variable 4.6 mph - N/A   Overcast
10:56 AM 57.0 °F 55.9 °F 96% 29.76 in 4.0 mi Variable 5.8 mph - N/A   Overcast
11:20 AM 57.2 °F 55.4 °F 94% 29.76 in 5.0 mi Variable 4.6 mph - N/A   Overcast
11:56 AM 57.9 °F 55.9 °F 93% 29.78 in 3.0 mi Variable 5.8 mph - N/A   Overcast
12:36 PM 57.2 °F 55.4 °F 94% 29.79 in 10.0 mi NW 9.2 mph - N/A   Overcast
12:56 PM 59.0 °F 55.9 °F 90% 29.79 in 10.0 mi Variable 5.8 mph - N/A   Overcast
1:53 PM 60.8 °F 55.4 °F 82% 29.79 in 10.0 mi WNW 9.2 mph - N/A   Overcast
1:56 PM 60.1 °F 55.0 °F 83% 29.80 in 10.0 mi Variable 5.8 mph - N/A   Overcast
2:56 PM 62.1 °F 55.9 °F 80% 29.81 in 10.0 mi NW 8.1 mph - N/A   Overcast
3:34 PM 62.6 °F 57.2 °F 82% 29.81 in 10.0 mi NW 6.9 mph - N/A   Overcast
3:56 PM 63.0 °F 57.0 °F 81% 29.83 in 10.0 mi Variable 5.8 mph - N/A   Overcast
4:56 PM 64.0 °F 59.0 °F 84% 29.85 in 10.0 mi Variable 5.8 mph - N/A   Overcast
5:56 PM 64.0 °F 59.0 °F 84% 29.88 in 10.0 mi NNW 10.4 mph 16.1 mph N/A   Overcast
6:56 PM 64.0 °F 59.0 °F 84% 29.90 in 10.0 mi Variable 3.5 mph - N/A   Overcast
7:56 PM 64.0 °F 59.0 °F 84% 29.94 in 10.0 mi NNW 4.6 mph - N/A   Overcast
8:56 PM 62.1 °F 57.9 °F 86% 29.95 in 10.0 mi Calm Calm - N/A   Partly Cloudy
9:56 PM 61.0 °F 57.9 °F 90% 29.96 in 10.0 mi Calm Calm - N/A   Clear
10:56 PM 57.0 °F 55.9 °F 96% 29.99 in 10.0 mi Calm Calm - N/A   Clear
11:56 PM 55.0 °F 54.0 °F 96% 29.99 in 10.0 mi NE 4.6 mph - N/A   Clear